X  Close Foggy this evening.
Conditions Temp Feels Precipitation Windspeed Direction UV index Pressure
20:00 fog Foggy -2° -7° 0.12 mm 5% 4-7 m/s NNW NNW - 1001,7
21:00 cloudy Overcast -2° -7° 0.1 mm 4% 3-6 m/s NNW NNW - 1001,8
22:00 cloudy Overcast -2° -6° 0.07 mm 3% 3-6 m/s NNW NNW - 1002,1
23:00 cloudy Overcast -2° -6° 0.05 mm 2% 3-6 m/s NNW NNW - 1002,5
00:00 cloudy Overcast -3° -6° 0.03 mm 2% 3-6 m/s NNW NNW - 1002,7
01:00 cloudy Overcast -3° -7° 0.02 mm 1% 3-6 m/s North North - 1003,0
02:00 cloudy Overcast -3° -6° 0.01 mm 1% 2-5 m/s NNE NNE - 1002,6
03:00 partly-cloudy-night Mostly Cloudy -3° 0.01 mm 1% 2-4 m/s NNE NNE - 1002,6
04:00 partly-cloudy-night Mostly Cloudy -3° 0.01 mm 1% 2-4 m/s North North - 1003,0
05:00 partly-cloudy-night Mostly Cloudy -4° - 2-3 m/s North North - 1002,9
06:00 partly-cloudy-night Mostly Cloudy -4° - 2-3 m/s NE NE - 1003,0
07:00 partly-cloudy-night Mostly Cloudy -5° - 1-2 m/s East East - 1002,7
08:00 partly-cloudy-night Mostly Cloudy -5° -8° 0.02 mm 2% 2-4 m/s NNE NNE - 1002,4
09:00 partly-cloudy-night Partly Cloudy -5° -9° 0.02 mm 2% 2-4 m/s NNE NNE - 1002,5
10:00 partly-cloudy-day Partly Cloudy -5° -9° 0.01 mm 2% 2-5 m/s NNE NNE - 1002,8
11:00 partly-cloudy-day Partly Cloudy -5° -9° 0.01 mm 2% 3-5 m/s NE NE - 1003,2
12:00 partly-cloudy-day Partly Cloudy -4° -8° 0.01 mm 3% 3-5 m/s NNE NNE - 1003,2
13:00 partly-cloudy-day Partly Cloudy -4° -8° 0.01 mm 3% 3-5 m/s NNE NNE - 1003,0
14:00 partly-cloudy-day Partly Cloudy -4° -7° - 2-3 m/s ENE ENE - 1003,8
15:00 partly-cloudy-day Partly Cloudy -4° -8° - 2-3 m/s NE NE - 1003,8
16:00 partly-cloudy-day Mostly Cloudy -5° -9° - 2-4 m/s ENE ENE - 1003,7
17:00 partly-cloudy-night Partly Cloudy -6° -10° - 3-5 m/s ENE ENE - 1003,7
18:00 partly-cloudy-night Partly Cloudy -6° -11° - 3-6 m/s ENE ENE - 1003,4
19:00 partly-cloudy-night Partly Cloudy -7° -12° - 3-6 m/s ENE ENE - 1003,3
20:00 partly-cloudy-night Partly Cloudy -7° -12° 0.01 mm 1% 4-7 m/s NNE NNE - 1002,9
21:00 partly-cloudy-night Mostly Cloudy -7° -12° 0.01 mm 1% 4-7 m/s NNE NNE - 1002,9
22:00 cloudy Overcast -7° -12° 0.01 mm 1% 4-7 m/s NNE NNE - 1002,9
23:00 cloudy Overcast -7° -12° 0.01 mm 1% 4-7 m/s NNE NNE - 1002,9
00:00 cloudy Overcast -7° -12° 0.01 mm 1% 3-7 m/s NNE NNE - 1002,8
01:00 partly-cloudy-night Mostly Cloudy -7° -13° 0.01 mm 1% 3-7 m/s NNE NNE - 1002,6
02:00 partly-cloudy-night Mostly Cloudy -7° -12° - 3-4 m/s NE NE - 1002,0
03:00 cloudy Overcast -7° -12° - 3-5 m/s NE NE - 1001,6
04:00 cloudy Overcast -7° -12° - 3-5 m/s NE NE - 1001,2
05:00 cloudy Overcast -7° -12° - 4-5 m/s NE NE - 1000,8
06:00 cloudy Overcast -7° -12° 0.01 mm 1% 4-5 m/s NE NE - 1000,3
07:00 cloudy Overcast -7° -12° 0.03 mm 1% 4-6 m/s NE NE - 999,9
08:00 cloudy Overcast -6° -12° 0.05 mm 2% 4-8 m/s NE NE - 999,4
09:00 cloudy Overcast -6° -12° 0.04 mm 2% 4-8 m/s NE NE - 998,9
10:00 cloudy Overcast -6° -12° 0.04 mm 2% 4-8 m/s NE NE - 998,7
11:00 cloudy Overcast -5° -11° 0.04 mm 3% 4-7 m/s NE NE - 998,6
12:00 cloudy Overcast -5° -11° 0.04 mm 5% 4-7 m/s NNE NNE - 998,4
13:00 cloudy Overcast -5° -10° 0.04 mm 7% 4-7 m/s NNE NNE - 998,0
14:00 fog Foggy -5° -11° 0.07 mm 9% 5-9 m/s NNE NNE - 997,1
15:00 fog Foggy -5° -11° 0.08 mm 9% 5-9 m/s NNE NNE - 996,8
16:00 fog Foggy -5° -12° 0.05 mm 8% 5-9 m/s NNE NNE - 996,8
17:00 fog Foggy -6° -12° 0.05 mm 7% 5-10 m/s NNE NNE - 996,6
18:00 cloudy Overcast -6° -12° 0.03 mm 5% 5-10 m/s NNE NNE - 996,6
19:00 cloudy Overcast -6° -12° 0.05 mm 5% 5-11 m/s NNE NNE - 996,0
20:00 fog Foggy -5° -12° 0.11 mm 6% 5-10 m/s NNE NNE - 995,5
Powered by:   darksky logo